Date String (YYYY-MM-DD hh:mm:ss) UTC,Instrument flags,Ambient pressure (hPa),Sample flow (lpm),Bypass flow (lpm),Sample temperature (°C),Ambient temperature (°C),ASC tube jacket temperature (°C),LED temperature (°C),Box temperature (°C),Sample RH (%),Span deviation,Mass concentration (μg/m³),Mass concentration (μg/m³),Mass concentration (μg/m³)
DateTimeUTC,F1_M11,P_M11,Q1_M11,Q2_M11,T1_M11,T2_M11,T3_M11,T4_M11,T5_M11,U1_M11,ZSPAN_M11,X0_M11,X2_M11,X1_M11
2021-11-16 00:00:00,,0826.4,5.00,0.00,30.1,29.1,00.0,39.0,31.8,08.4,0000.0,0003.16,0000.51,0000.30
2021-11-16 00:01:00,,0826.4,5.00,0.00,30.1,29.2,00.0,39.0,31.8,08.4,0000.0,0002.56,0000.49,0000.30
2021-11-16 00:02:00,,0826.5,5.00,0.00,30.1,29.2,00.0,39.0,31.8,08.4,0000.0,0002.14,0000.51,0000.30
2021-11-16 00:03:00,,0826.4,4.99,0.00,30.1,29.2,00.0,39.0,31.8,08.4,0000.0,0001.16,0000.49,0000.30
2021-11-16 00:04:00,,0826.5,5.00,0.00,30.1,29.2,00.0,39.0,31.9,08.3,0000.0,0000.97,0000.45,0000.29
2021-11-16 00:05:00,,0826.5,5.01,0.00,30.1,29.3,00.0,39.0,31.9,08.4,0000.0,0000.85,0000.43,0000.29
2021-11-16 00:06:00,,0826.4,5.00,0.00,30.1,29.3,00.0,39.1,31.9,08.4,0000.0,0001.55,0000.43,0000.29
2021-11-16 00:07:00,,0826.4,5.00,0.00,30.1,29.3,00.0,39.1,31.9,08.4,0000.0,0002.53,0000.45,0000.29
2021-11-16 00:08:00,,0826.3,5.00,0.00,30.2,29.3,00.0,39.1,31.9,08.3,0000.0,0002.58,0000.48,0000.30
2021-11-16 00:09:00,,0826.3,5.00,0.00,30.2,29.3,00.0,39.1,31.9,08.3,0000.0,0003.50,0000.48,0000.30
2021-11-16 00:10:00,,0826.3,5.00,0.00,30.2,29.3,00.0,39.1,31.9,08.3,0000.0,0003.61,0000.49,0000.30
2021-11-16 00:11:00,,0826.3,4.99,0.00,30.2,29.3,00.0,39.1,31.9,08.3,0000.0,0003.50,0000.47,0000.30
2021-11-16 00:12:00,,0826.3,4.98,0.00,30.2,29.3,00.0,39.1,31.9,08.3,0000.0,0003.52,0000.49,0000.30
2021-11-16 00:13:00,,0826.3,5.00,0.00,30.2,29.3,00.0,39.1,31.9,08.3,0000.0,0003.42,0000.48,0000.30
2021-11-16 00:14:00,,0826.2,5.00,0.00,30.2,29.4,00.0,39.1,31.9,08.3,0000.0,0003.42,0000.48,0000.30
2021-11-16 00:15:00,,0826.3,5.00,0.00,30.2,29.4,00.0,39.2,31.9,08.3,0000.0,0003.40,0000.47,0000.30
2021-11-16 00:16:00,,0826.2,5.00,0.00,30.2,29.2,00.0,39.2,31.9,08.3,0000.0,0003.49,0000.49,0000.30
2021-11-16 00:17:00,,0826.2,5.00,0.00,30.1,27.3,00.0,39.2,31.5,08.4,0000.0,0004.35,0000.49,0000.30
2021-11-16 00:18:00,,0826.2,4.99,0.00,30.0,26.2,00.0,39.1,31.3,08.5,0000.0,0003.43,0000.48,0000.30
2021-11-16 00:19:00,,0826.2,5.02,0.00,29.9,26.4,00.0,39.1,31.3,08.5,0000.0,0003.50,0000.49,0000.30
2021-11-16 00:20:00,,0826.2,4.99,0.00,29.8,26.8,00.0,39.0,31.2,08.6,0000.0,0002.90,0000.52,0000.30
2021-11-16 00:21:00,,0826.2,5.00,0.00,29.8,27.2,00.0,39.0,31.3,08.6,0000.0,0002.84,0000.55,0000.30
2021-11-16 00:22:00,,0826.2,5.01,0.00,29.8,27.6,00.0,38.9,31.3,08.6,0000.0,0003.09,0000.60,0000.31
2021-11-16 00:23:00,,0826.2,5.00,0.00,29.8,27.9,00.0,38.9,31.4,08.6,0000.0,0003.09,0000.59,0000.32
2021-11-16 00:24:00,,0826.2,5.01,0.00,29.8,28.1,00.0,38.9,31.4,08.6,0000.0,0003.79,0000.61,0000.32
2021-11-16 00:25:00,,0826.2,5.00,0.00,29.8,28.2,00.0,38.9,31.4,08.6,0000.0,0003.96,0000.61,0000.33
2021-11-16 00:26:00,,0826.2,4.98,0.00,29.8,28.4,00.0,38.8,31.5,08.6,0000.0,0003.97,0000.62,0000.33
2021-11-16 00:27:00,,0826.2,5.01,0.00,29.8,28.5,00.0,38.8,31.5,08.6,0000.0,0003.93,0000.60,0000.33
2021-11-16 00:28:00,,0826.2,5.00,0.00,29.8,28.6,00.0,38.8,31.5,08.6,0000.0,0002.73,0000.64,0000.33
2021-11-16 00:29:00,,0826.2,5.01,0.00,29.8,28.7,00.0,38.8,31.5,08.6,0000.0,0002.66,0000.69,0000.34
2021-11-16 00:30:00,,0826.2,5.00,0.00,29.8,28.7,00.0,38.8,31.6,08.6,0000.0,0002.59,0000.67,0000.34
2021-11-16 00:31:00,,0826.2,5.00,0.00,29.8,28.8,00.0,38.8,31.6,08.5,0000.0,0002.38,0000.63,0000.34
2021-11-16 00:32:00,,0826.2,5.00,0.00,29.8,28.8,00.0,38.8,31.6,08.5,0000.0,0002.27,0000.63,0000.34
2021-11-16 00:33:00,,0826.1,4.99,0.00,29.9,28.9,00.0,38.8,31.6,08.5,0000.0,0002.01,0000.57,0000.33
2021-11-16 00:34:00,,0826.2,5.01,0.00,29.9,28.9,00.0,38.8,31.6,08.5,0000.0,0001.97,0000.56,0000.33
2021-11-16 00:35:00,,0826.2,5.00,0.00,29.9,29.0,00.0,38.9,31.6,08.5,0000.0,0001.22,0000.53,0000.32
2021-11-16 00:36:00,,0826.2,4.99,0.00,29.9,29.0,00.0,38.9,31.7,08.5,0000.0,0001.02,0000.51,0000.31
2021-11-16 00:37:00,,0826.2,5.02,0.00,29.9,29.0,00.0,38.9,31.7,08.5,0000.0,0000.97,0000.50,0000.32
2021-11-16 00:38:00,,0826.2,5.01,0.00,29.9,29.1,00.0,38.9,31.7,08.5,0000.0,0000.90,0000.47,0000.32
2021-11-16 00:39:00,,0826.2,5.00,0.00,30.0,29.1,00.0,38.9,31.7,08.5,0000.0,0000.70,0000.44,0000.32
2021-11-16 00:40:00,,0826.1,4.99,0.00,30.0,29.1,00.0,38.9,31.7,08.5,0000.0,0000.86,0000.41,0000.31
2021-11-16 00:41:00,,0826.0,5.01,0.00,30.0,29.2,00.0,38.9,31.7,08.4,0000.0,0001.12,0000.43,0000.31
2021-11-16 00:42:00,,0826.0,5.00,0.00,30.0,29.2,00.0,38.9,31.7,08.4,0000.0,0001.21,0000.45,0000.31
2021-11-16 00:43:00,,0826.0,4.99,0.00,30.0,29.2,00.0,39.0,31.8,08.4,0000.0,0001.27,0000.47,0000.32
2021-11-16 00:44:00,,0826.0,5.02,0.00,30.0,29.2,00.0,39.0,31.7,08.4,0000.0,0001.42,0000.52,0000.32
2021-11-16 00:45:00,,0826.0,5.01,0.00,30.0,29.2,00.0,39.0,31.7,08.5,0000.0,0001.41,0000.52,0000.32
2021-11-16 00:46:00,,0826.0,4.99,0.00,30.1,29.2,00.0,39.0,31.7,08.5,0000.0,0001.45,0000.54,0000.33
2021-11-16 00:47:00,,0826.0,5.00,0.00,30.1,29.2,00.0,39.0,31.7,08.5,0000.0,0001.50,0000.56,0000.33
2021-11-16 00:48:00,,0826.0,5.00,0.00,30.1,29.2,00.0,39.0,31.8,08.4,0000.0,0001.50,0000.56,0000.33
2021-11-16 00:49:00,,0826.0,5.00,0.00,30.1,29.2,00.0,39.0,31.8,08.4,0000.0,0001.65,0000.60,0000.33
2021-11-16 00:50:00,,0826.0,5.00,0.00,30.1,29.2,00.0,39.0,31.8,08.5,0000.0,0001.85,0000.65,0000.33
2021-11-16 00:51:00,,0825.9,5.01,0.00,30.1,29.3,00.0,39.0,31.8,08.5,0000.0,0001.70,0000.65,0000.33
2021-11-16 00:52:00,,0826.0,5.00,0.00,30.1,29.3,00.0,39.1,31.9,08.5,0000.0,0001.58,0000.65,0000.33
2021-11-16 00:53:00,,0825.9,5.00,0.00,30.1,29.3,00.0,39.1,31.9,08.5,0000.0,0001.60,0000.66,0000.33
2021-11-16 00:54:00,,0826.0,5.01,0.00,30.1,29.3,00.0,39.1,31.9,08.5,0000.0,0001.62,0000.67,0000.33
2021-11-16 00:55:00,,0826.0,5.00,0.00,30.1,29.3,00.0,39.1,31.9,08.5,0000.0,0001.68,0000.64,0000.33
2021-11-16 00:56:00,,0825.9,5.00,0.00,30.2,29.4,00.0,39.1,31.9,08.4,0000.0,0001.69,0000.62,0000.33
2021-11-16 00:57:00,,0825.9,5.00,0.00,30.2,29.4,00.0,39.1,31.9,08.4,0000.0,0001.79,0000.63,0000.33
2021-11-16 00:58:00,,0825.8,4.98,0.00,30.2,29.4,00.0,39.1,31.9,08.3,0000.0,0001.76,0000.62,0000.33
2021-11-16 00:59:00,,0825.8,5.00,0.00,30.2,29.4,00.0,39.1,31.9,08.4,0000.0,0001.77,0000.63,0000.33
